Epoch = 2020 July 10.0 TT T = 2020 July 25.06877 TT Peri. = 352.62469 e = 0.1467868 Node = 11.89853 2000.0 q = 2.2997810 AU Incl. = 3.70315 a = 2.6954354 AU n = 0.22272075 P = 4.42 years
H = 19.0 G = 0.15